Charlottetown, Prince Edward Island

11:58 AM AST on December 14, 2017 (GMT -0400)
Charlottetown

Weather History for CYYG - October, 2011

Change the Weather History Date:

Thursday, October 27, 2011

  Actual Average Record
Temperature  
Mean Temperature 40 °F -  
Max Temperature 45 °F 44 °F 62 °F (2003)
Min Temperature 34 °F 31 °F 24 °F (1998)
Degree Days  
Heating Degree Days 26    
Moisture  
Dew Point 32 °F    
Average Humidity 74    
Maximum Humidity 87    
Minimum Humidity 57    
Precipitation  
Precipitation 0.00 in 0.16 in - ()
Sea Level Pressure  
Sea Level Pressure 29.66 in    
Wind  
Wind Speed 8 mph ()    
Max Wind Speed 14 mph    
Max Gust Speed 18 mph    
Visibility 15.0 miles    
Events Rain    
Averages and records for this station are not official NWS values.
T = Trace of Precipitation, MM = Missing Value Source: Averaged Metar Reports

Daily Weather History Graph

Daily Weather History Graph

Search for Another Location

Airport or City:

Trip Planner

Search our weather history database for the weather conditions in past years. The results will help you decide how hot, cold, wet, or windy it might be!

Date:

Astronomy

Oct. 27, 2011 Rise Set
Actual Time 7:46 AM ADT 6:06 PM ADT
Civil Twilight 7:15 AM ADT 6:37 PM ADT
Nautical Twilight 6:39 AM ADT 7:12 PM ADT
Astronomical Twilight 6:04 AM ADT 7:46 PM ADT
Moon 8:50 AM ADT (10/27) 6:23 PM ADT (10/27)
Length of Visible Light 11h 21m
Length of Day
10h 20m
New Moon, 1% of the Moon is Illuminated
Oct 27
New Moon
Nov 2
First Quarter
Nov 10
Full
Nov 18
Last Quarter
Nov 25
New

Hourly Weather History & Observations

Time (ADT) Temp. Windchill Dew Point Humidity Pressure Visibility Wind Dir Wind Speed Gust Speed Precip Events Conditions
12:00 AM 41.0 °F 34.3 °F 32.0 °F 70% 29.61 in 15.0 mi WNW 11.5 mph - N/A   Mostly Cloudy
1:00 AM 39.2 °F 32.5 °F 32.0 °F 75% 29.62 in 15.0 mi West 10.4 mph - N/A   Mostly Cloudy
2:00 AM 39.2 °F 31.6 °F 32.0 °F 75% 29.62 in 15.0 mi WNW 12.7 mph 18.4 mph N/A   Scattered Clouds
3:00 AM 39 °F - 32 °F 66% 29.62 in 15 mi WNW 12.7 mph - -   Scattered Clouds
3:00 AM 39.2 °F 31.2 °F 32.0 °F 75% 29.62 in 15.0 mi NW 13.8 mph - N/A   Partly Cloudy
4:00 AM 37.4 °F 31.4 °F 32.0 °F 81% 29.63 in 15.0 mi WNW 8.1 mph - N/A   Partly Cloudy
6:00 AM 35.6 °F 29.9 °F 30.2 °F 81% 29.65 in 15.0 mi West 6.9 mph - N/A   Mostly Cloudy
8:00 AM 35.6 °F 30.7 °F 32.0 °F 87% 29.66 in 15.0 mi West 5.8 mph - N/A   Mostly Cloudy
9:00 AM 36 °F - 32 °F 79% 29.68 in 15 mi West 9.2 mph - -   Scattered Clouds
9:00 AM 37.4 °F 30.8 °F 32.0 °F 81% 29.68 in 15.0 mi West 9.2 mph - N/A   Mostly Cloudy
10:00 AM 39.2 °F 33.6 °F 33.8 °F 81% 29.68 in 15.0 mi West 8.1 mph - N/A   Mostly Cloudy
11:00 AM 39.2 °F 33.0 °F 32.0 °F 75% 29.68 in 15.0 mi WNW 9.2 mph - N/A   Mostly Cloudy
2:00 PM 42.8 °F 36.6 °F 32.0 °F 66% 29.67 in 15.0 mi WNW 11.5 mph - N/A   Mostly Cloudy
3:00 PM 44 °F - 34 °F 57% 29.66 in 15 mi West 10.4 mph - -   Partly Cloudy
5:00 PM 42.8 °F 38.6 °F 32.0 °F 66% 29.68 in 15.0 mi NW 6.9 mph - N/A   Mostly Cloudy
6:00 PM 41.0 °F 37.1 °F 32.0 °F 70% 29.68 in 15.0 mi NW 5.8 mph - N/A   Overcast
7:00 PM 41.0 °F 38.0 °F 32.0 °F 70% 29.68 in 15.0 mi NW 4.6 mph - N/A   Overcast
8:00 PM 41.0 °F 38.0 °F 32.0 °F 70% 29.69 in 15.0 mi West 4.6 mph - N/A   Overcast
9:00 PM 39 °F - 32 °F 66% 29.66 in 15 mi West 4.6 mph - -   Overcast
9:00 PM 39.2 °F 35.9 °F 32.0 °F 75% 29.66 in 15.0 mi West 4.6 mph - N/A   Overcast
10:00 PM 41.0 °F 36.4 °F 33.8 °F 76% 29.68 in 15.0 mi WNW 6.9 mph - N/A   Overcast
10:48 PM 41.0 °F 38.0 °F - N/A% - 15.0 mi West 4.6 mph - N/A Rain Light Rain Showers
11:00 PM 41.0 °F 38.0 °F 33.8 °F 76% 29.67 in 15.0 mi West 4.6 mph - N/A Rain Light Rain Showers